Hourly Data Report for October 07, 2006

ALERT CLIMATE
NUNAVUT

82°30'00.000" N
62°20'00.000" W
65.40 m
2400305
71355
ZLT

Download Data

Hourly Data (October 2006)
Hourly Data Report for October 7, 2006
TIME
LST
Temp Definition
°C
Dew Point Definition
°C
Rel Hum Definition
%
Precip. Amount Definition
mm

Wind Dir Definition
10's deg

Wind Spd Definition
km/h
Visibility Definition
km
Stn Press Definition
kPa
Hmdx Definition


Wind Chill Definition


Weather Definition


00:00 -16.9 -18.4 88   28 4   101.30   -20 LegendNANA
01:00 -17.2 -18.8 87   35 2   101.30   -19 LegendNANA
02:00 -17.2 -18.8 87   33 2   101.30   -19 LegendNANA
03:00 -17.2 -18.7 88   31 4   101.29   -20 LegendNANA
04:00 -17.5 -19.1 87   33 4   101.29   -21 LegendNANA
05:00 -17.8 -19.4 87   36 2   101.27   -19 LegendNANA
06:00 -17.8 -19.4 87     0   101.26     LegendNANA
07:00 -17.8 -19.4 87     0   101.23     LegendNANA
08:00 -17.2 -18.7 88   26 2   101.23   -19 LegendNANA
09:00 -17.1 -18.7 87     0   101.23     LegendNANA
10:00 -17.6 -19.2 87   7 2   101.22   -19 LegendNANA
11:00 -17.6 -19.2 87   8 2   101.23   -19 LegendNANA
12:00 -17.2 -18.8 87     0   101.23     LegendNANA
13:00 -17.0 -18.5 88   29 2   101.23   -19 LegendNANA
14:00 -16.5 -18.0 88   28 4   101.23   -20 LegendNANA
15:00 -16.8 -18.3 88   28 2   101.24   -18 LegendNANA
16:00 -16.9 -18.4 88   28 4   101.25   -20 LegendNANA
17:00 -16.6 -18.1 88   32 4   101.25   -20 LegendNANA
18:00 -17.4 -19.0 87   34 2   101.28   -19 LegendNANA
19:00 -17.4 -19.0 87     0   101.30     LegendNANA
20:00 -17.5 -19.1 87   28 2   101.32   -19 LegendNANA
21:00 -17.3 -18.8 88   27 4   101.33   -20 LegendNANA
22:00 -17.2 -18.8 87   29 4   101.33   -20 LegendNANA
23:00 -16.7 -18.2 88   29 4   101.32   -20 LegendNANA

Notes on Data Quality.

Legend

  • E = Estimated
  • M = Missing
  • NA = Not Available*
  • [empty] = Indicates an unobserved value
Date modified: